DELTA 1 DEB, 7836

Orbit data source: Space-Track

DELTA 1 DEB, 7836 is space debris in SSO originally from a launch on Sun, 23 Jul 1972 UTC launched from the Air Force Western Test Range (AFWTR). Debris objects in space refer to the collection of defunct objects orbiting the Earth. Examples of debris include non-operational satellites, rocket bodies, and fragments generated from explosions, collisions, or faulty payload assembly.

Loading next visibility...
Identifier
7836, 1972-058G
Orbit
SSO
Country
Flag of USUS
Related business
Manufacturer
Unknown
Mission
Spacecraft
Bus & Motor
Unknown
Mass
Unknown
Launch date (UTC)
1972-07-23 (53 years ago)
Launch vehicle
Unknown
Launch site
Air Force Western Test Range (AFWTR)
Object type
Payload
Rocket body
Debris
Shape & HBR
Unknown shape, 0.1 m
Radar Cross Section
Medium (>0.1 m² and <1 m²)

Expand to show TLE details & history
Last TLE update: 1 day ago

TLE from 1 day ago
0 DELTA 1 DEB
1 07836U 72058G   25348.54630548  .00000685  00000-0  33132-3 0  9997
2 07836  97.9637 185.2080 0325212  92.9110 270.9317 13.96755032613132
Epoch: 2025-12-14T13:06Z
TLE epoch observation values (Epoch: 2025-12-14T13:06:40.793Z)
Latitude
-0.00004°
Longitude
-94.91964°
Altitude
911.814 km
Speed
7.394 km/s
True Right ascension
12h 20m 49s
True Declination
0° 00' 00"
Sunlit
Object was in daylight at epoch
Visualization orbit readout
Latitude
Unknown
Longitude
Unknown
Altitude
Unknown
Speed
Unknown
Apparent Right ascension
Unknown
Apparent Declination
Unknown
Sunlit
N/A
Visualization observer readout
Local Sidereal Time
11:30:27
Azimuth
Unknown
Elevation
Unknown
Doppler factor
Unknown
Orbital elements
Apogee altitude
1,138.97 km
Perigee altitude
665.44 km
Semi-major axis
7,280.342 km
Eccentricity
0.03252
Inclination
97.9637°
RAAN
185.208°
Arg. of periapsis
92.911°
True anomaly
267.2057°
Mean anomaly
270.9317°
Eccentric anomaly
269.06862°
Mean motion
3.49394 °/min
Orbital period
103.04 mins
BSTAR
0.00033132
Loading maneuver chart data...
Computing Atmospheric mass density...

Documentation

Showing up to 5 results
|